Regional Weather Roundup
Issued by NWS

Home | Current Version | Previous Version | Text Only | Print | Product List | Glossary Off
Versions: 1 2 3 4 5 6 7 8 9 10 11 12 13 14 15 16 17 18 19 20 21 22 23 24 25 26 27 28 29 30 31 32 33 34 35 36 37 38 39 40 41 42 43 44 45 46 47 48 49 50

000
ASUS45 KABQ 310601
RWRNM
WEATHER ROUNDUP FOR NEW MEXICO
NATIONAL WEATHER SERVICE ALBUQUERQUE NM
1100 PM MST FRI JAN 30 2015

NOTE: "FAIR" MEANS FEW OR NO CLOUDS BELOW 12,000 FEET AGL WITH NO
       SIGNIFICANT WEATHER OR OBSTRUCTIONS TO VISION.

      THIS PRODUCT IS RELEASED AS TWO VERSIONS.  ONE VERSION NEAR
      THE TOP OF THE HOUR CONTAINING PRELIMINARY DATA FROM ALBUQUERQUE
      AND OTHER STATIONS.  A FINAL VERSION WITH ADDITIONAL DATA IS
      ISSUED ABOUT 10 MINUTES AFTER THE HOUR.

NMZ501-503-504-510>518-310700-
NORTHWEST PLATEAU/NORTHCENTRAL MOUNTAINS

CITY           SKY/WX    TMP DP  RH WIND       PRES   REMARKS
FARMINGTON     LGT RAIN  34  33  96 E5        29.97F WCI  30
6HR MIN TEMP:  34; 6HR MAX TEMP:  34; 6HR PCP:  0.14;

SANTA FE       CLOUDY    30  27  88 S12       30.05S WCI  20
6HR MIN TEMP:  30; 6HR MAX TEMP:  31; 6HR PCP:  0.02;

TAOS           CLOUDY    28  27  93 CALM      30.05F

$$
NMZ402-403-502-505>509-310700-
WESTCENTRAL MOUNTAINS/SOUTHWEST MOUNTAINS

CITY           SKY/WX    TMP DP  RH WIND       PRES   REMARKS
GALLUP         LGT SNOW  33  31  92 CALM      29.96S FOG
6HR MIN TEMP:  33; 6HR MAX TEMP:  34; 6HR PCP:  0.12;

SILVER CITY    LGT RAIN  39  39 100 S5        30.00F

$$
NMZ407-409-411-412-310700-
SOUTHERN DESERTS

CITY           SKY/WX    TMP DP  RH WIND       PRES   REMARKS
DEMING         LGT RAIN  42  42 100 E12       29.98F
6HR MIN TEMP:  42; 6HR MAX TEMP:  43; 6HR PCP:  0.13;

HOLLOMAN AFB   LGT RAIN  42  42 100 S5        30.02F
ALAMOGORDO     CLOUDY    41  41 100 N5        30.03F FOG
T OR C         LGT RAIN  40  40 100 CALM      30.01F
6HR MIN TEMP:  40; 6HR MAX TEMP:  40; 6HR PCP:  0.08;


$$
NMZ519>523-310700-
CENTRAL VALLEYS/CENTRAL HIGHLANDS

CITY           SKY/WX    TMP DP  RH WIND       PRES   REMARKS
ALBUQUERQUE    CLOUDY    35  32  88 NW5       30.04F WCI  31
6HR MIN TEMP:  34; 6HR MAX TEMP:  37; 6HR PCP:  0.02;

DOUBLE EAGLE   CLOUDY    32  30  93 N8        30.04F WCI  24
MORIARTY ARPT  CLOUDY    30  28  92 SE8       30.08F WCI  22
6HR MIN TEMP:  30; 6HR MAX TEMP:  31;

CLINES CORNERS NOT AVBL
BELEN          CLOUDY    34  34 100 NW3       30.04S FOG
6HR MIN TEMP:  33; 6HR MAX TEMP:  34;

SOCORRO        NOT AVBL

$$
NMZ524>526-539-540-310700-
SOUTHCENTRAL MOUNTAINS

CITY           SKY/WX    TMP DP  RH WIND       PRES   REMARKS
RUIDOSO        NOT AVBL

$$
NMZ527>531-310700-
NORTHEAST HIGHLANDS/NORTHEAST PLAINS

CITY           SKY/WX    TMP DP  RH WIND       PRES   REMARKS
LAS VEGAS      FOG       26  25  96 SW7       30.08S VSB 1/2 WCI  18
6HR MIN TEMP:  26; 6HR MAX TEMP:  27; 6HR PCP:  0.04;

RATON          CLOUDY    29  28  96 CALM      30.07F
6HR MIN TEMP:  29; 6HR MAX TEMP:  30; 6HR PCP:  0.03;

CLAYTON        FRZ RAIN  33  31  92 S15       30.09F WCI  23
6HR MIN TEMP:  33; 6HR MAX TEMP:  34; 6HR PCP:  0.02;


$$
NMZ532>537-310700-
EASTCENTRAL PLAINS

CITY           SKY/WX    TMP DP  RH WIND       PRES   REMARKS
TUCUMCARI      LGT RAIN  35  33  92 CALM      30.15F FOG
6HR MIN TEMP:  35; 6HR MAX TEMP:  37; 6HR PCP:  0.06;

CANNON AFB     LGT RAIN  34  34  99 SE7       30.15F WCI  28
6HR MIN TEMP:  34; 6HR MAX TEMP:  36; 6HR PCP:  0.04;

CLOVIS AIRPORT CLOUDY    34  30  86 S9        30.16F WCI  26

$$
NMZ028-029-538-310700-
SOUTHEAST PLAINS

CITY           SKY/WX    TMP DP  RH WIND       PRES   REMARKS
ROSWELL        LGT RAIN  38  36  92 SW3       30.15S FOG
6HR MIN TEMP:  38; 6HR MAX TEMP:  40; 6HR PCP:  0.13;

ARTESIA        RAIN      37  37 100 NW3       30.17R
CARLSBAD       RAIN      40  37  89 N3        30.14F FOG
6HR MIN TEMP:  40; 6HR MAX TEMP:  43; 6HR PCP:  0.28;

HOBBS          LGT RAIN  37  37 100 E12       30.16S WCI  30


$$


USA.gov is the U.S. government's official web portal to all federal, state and local government web resources and services.